Regional Weather Roundup
Issued by NWS Kansas City/Pleasant Hill, MO

Home | Current Version | Previous Version | Text Only | Print | Product List | Glossary On
Versions: 1 2 3 4 5 6 7 8 9 10 11 12 13 14 15 16 17 18 19 20 21 22 23 24 25 26 27 28 29 30 31 32 33 34 35 36 37 38 39 40 41 42 43 44 45 46 47 48 49 50
000
ASUS43 KEAX 120704
RWREAX

WEATHER ROUNDUP FOR EASTERN KANSAS AND NORTHWEST MISSOURI
NATIONAL WEATHER SERVICE KANSAS CITY/PLEASANT HILL MO
200 AM CDT SAT JUL 12 2014

KSZ040-057-103>105-MOZ028-029-037-043-120800-
...KANSAS CITY METROPOLITAN AREA...

CITY           SKY/WX    TMP DP  RH WIND       PRES   REMARKS
K.C. INTL      PTCLDY    78  70  76 S16       30.05F
K.C. DOWNTOWN  CLEAR     82  70  66 SW12      30.04F
LEES SUMMIT    CLEAR     78  70  76 SW8       30.07F
OLATHE - IXD   PTCLDY    76  70  82 S8        30.08S
OLATHE - OJC   PTCLDY    76  70  82 S6        30.07S
LAWRENCE       CLEAR     76  70  82 SE7       30.05F

$$

MOZ001>008-011>017-020>025-030>033-038>040-044>046-053-054-120800-
...NORTHERN AND CENTRAL MISSOURI...

CITY           SKY/WX    TMP DP  RH WIND       PRES   REMARKS
ST. JOSEPH     PTCLDY    77  71  82 S7        30.02F
MOSBY          MOSUNNY   79  70  73 S7        30.05S
WHITEMAN AFB   PTCLDY    77  66  69 SW9       30.07S
CLINTON        PTCLDY    77  72  83 S6        30.09S
SEDALIA        PTCLDY    80  72  76 SW9       30.08F
WARSAW         NOT AVBL
MARSHALL         N/A     81  73  78 SW8       30.07F HAZE
CHILLICOTHE      N/A     80  73  79 S6        30.04F
KIRKSVILLE     CLEAR     77  73  87 SW6       30.04F

$$

MOZ041-047>049-056>058-063>065-088>090-097-120800-
...EASTERN AND SOUTHERN MISSOURI...

CITY           SKY/WX    TMP DP  RH WIND       PRES   REMARKS
ST. LOUIS INTL CLOUDY    82  71  69 S8        30.11S
SPIRIT OF STL  MOCLDY    79  71  76 CALM      30.09S
COLUMBIA       MOCLDY    78  74  87 S7        30.08F
HANNIBAL       PTCLDY    79  72  78 S6        30.06F
ROLLA          CLOUDY    76  72  87 S9        30.10F
LEBANON        PTCLDY    77  72  83 SW7       30.14S
OSAGE BEACH    MOCLDY    79  72  78 S7        30.10F
SPRINGFIELD    CLEAR     74  69  85 S8        30.14S
BRANSON        PTCLDY    73  72  94 S6        30.17F
NEVADA         PTCLDY    77  70  78 S8        30.11S
JOPLIN         CLEAR     76  69  79 S9        30.12S
WEST PLAINS    CLEAR     75  72  90 S5        30.17S
PIEDMONT       CLEAR     70  68  94 CALM      30.15F

$$

IAZ060-094-KSZ022-034>040-054-083-096-NEZ052-066-093-120800-
...KANSAS...SOUTHEAST NEBRASKA AND IOWA...

CITY           SKY/WX    TMP DP  RH WIND       PRES   REMARKS
TOPEKA         PTCLDY    80  70  71 S7        30.04F
MANHATTAN      CLEAR     80  66  62 SW16      30.02F
EMPORIA        CLEAR     73  69  87 S10       30.07F
CHANUTE        CLEAR     75  69  81 S6        30.10S
WICHITA        CLEAR     74  64  71 S10       30.08S
OMAHA          MOCLDY    77  73  87 SE5       29.97S
LINCOLN        PTCLDY    80  66  62 SW5       29.98S
FALLS CITY     CLEAR     78  70  76 S10       30.00S
LAMONI         MOCLDY    76  73  91 S10       30.01F
DES MOINES     CLOUDY    75  72  90 E5        29.99F THUNDER

$$



USA.gov is the U.S. government's official web portal to all federal, state and local government web resources and services.